Terminal Aerodrome Forecast
Issued by NWS Huntsville, AL

Home | Current Version | Previous Version | Text Only | Print | Product List | Glossary On
Versions: 1 2 3 4 5 6 7 8 9 10 11 12 13 14 15 16 17 18 19 20 21 22 23 24 25 26 27 28 29 30 31 32 33 34 35 36 37 38 39 40 41 42 43 44
007
FTUS44 KHUN 252359 CCA
TAFHSV
TAF COR
KHSV 252359Z 2600/2624 22005KT P6SM VCSH SCT040 SCT200
     FM260200 VRB02KT P6SM FEW035 SCT250
     FM260600 VRB02KT 5SM BR FEW035 SCT100
      TEMPO 2610/2613 2SM BR
     FM261300 VRB04KT P6SM FEW035 SCT100
     FM261600 VRB04KT P6SM SCT050=

USA.gov is the U.S. government's official web portal to all federal, state and local government web resources and services.